Tracking 35030 objects as of 9-Aug-2026
HD Live streaming from Space Station
objects crossing your sky now

STARLINK-1739


STARLINK-1739 is no longer on orbit
STARLINK-1739 is classified as:


NORAD ID: 46363
Int'l Code: 2020-062AQ
Launch date: September 3, 2020
Source: United States (US)
Launch site: AIR FORCE EASTERN TEST RANGE (AFETR)
Decay date: 2025-05-25
Your satellite tracking list
Your tracking list is empty




NASA's NSSDC Master Catalog

Two Line Element Set (TLE):
1 46363U 20062AQ  25145.02368451  .16241053  12467-4  55409-3 0  9990
2 46363  53.0021 122.0814 0005062 258.3265 215.3420 16.44347722262497
Source of the keplerian elements: AFSPC